{"data":{"norad_id":87014,"epoch":"2026-09-12T21:55:21.433728Z","epoch_age_seconds":673554,"freshness":"AGED","line1":"1 87014U          26255.91344252  .00001593  00000+0  24419-2 0  9999","line2":"2 87014 100.4677 240.3623 0048321 303.9186  84.7095 13.53070554627983","mean_motion":13.53070554,"eccentricity":0.0048321,"inclination_deg":100.4677,"raan_deg":240.3623,"arg_perigee_deg":303.9186,"mean_anomaly_deg":84.7095,"bstar":0.0024419,"rev_number":62798,"period_min":106.42460555682,"perigee_km":1025.0361167989,"apogee_km":1096.9292572784,"semimajor_km":7439.1196870387,"source":"CELESTRAK","updated_at":"2026-09-20T09:00:32.448792Z"}}